Airport Information

KYKM - Yakima Air Terminal McAllister Field Airport

KYKM 251453Z 34003KT 10SM FEW050 M02/M09 A3062 RMK AO2 SLP381 T10221089 51020


  • General Information

  • Coordinates: N 46°34'5"/ W 120°32'38"
  • Location: N/A
  • Surveyed Elevation: 1095 MSL

Operations

Flow Name Active Runways Conditions

Green background denotes normal operations.


Common Frequencies

Callsign Frequency Position Name

More at the Document Center


Charts


Flights